Location: Pasadena-CA
(34.1440°N, 118.1100°W)
Time: 05:09:23
(UTC-07:00)

NOAA 19 - Pass Details

Date: 30 June 2022
Orbit: 840 x 861 km, 99.1° (Epoch: 15 August)

Event Time Altitude Azimuth Distance (km) Brightness Sun altitude
Rises 20:54:02 0° 188° (S) 3,418 8.1 -8.8°
Reaches altitude 10° 20:56:37 10° 198° (SSW) 2,483 7.5 -9.3°
Maximum altitude 21:01:34 34° 262° (W) 1,381 6.8 -10.1°
Drops below altitude 10° 21:06:32 10° 326° (NW) 2,486 9.0 -10.9°
Sets 21:09:08 0° 336° (NNW) 3,422 9.6 -11.3°
